Regional Weather Roundup
Issued by NWS Wakefield, VA

Home | Current Version | Previous Version | Graphics & Text | Print | Product List | Glossary Off
Versions: 1 2 3 4 5 6 7 8 9 10 11 12 13 14 15 16 17 18 19 20 21 22 23 24 25 26

000
ASUS41 KAKQ 260315
RWRAKQ

REGIONAL WEATHER ROUNDUP
NATIONAL WEATHER SERVICE WAKEFIELD VA
1100 PM EDT THU MAY 25 2017

Note: "fair" indicates few or no clouds below 12,000 feet with no
significant weather and/or obstructions to visibility. * = Denotes
station may not report precipitation (e.g., rain,snow,etc.),
thunder or fog.

VAZ042-051-052>054-056-260400-
NORTHERN VIRGINIA

CITY           SKY/WX    TMP DP  RH WIND       PRES   REMARKS
WASH NATIONAL  MOCLDY    61  59  93 SW3       29.55R
DULLES         CLOUDY    57  55  93 CALM      29.55R
FORT BELVOIR   LGT RAIN  59  57  94 CALM      29.55R
QUANTICO       MOCLDY    60  59  96 W7        29.57R
FREDERICKSBRG* MOCLDY    60  60 100 CALM      29.56R
STAFFORD*      MOCLDY    57  57 100 CALM      29.61R
WARRENTON      PTCLDY    57  54  91 CALM      29.55R
CULPEPER*      CLEAR     57  57 100 CALM      29.57R
MANASSAS*      CLOUDY    57  56  96 CALM      29.56R
LEESBURG*      CLOUDY    59  59 100 CALM      29.56R
WINCHESTER     PTCLDY    55  54  94 W3        29.57R
FRONT ROYAL*   CLOUDY    54  54 100 CALM      29.57R
LURAY*         FOG       54  54 100 CALM        N/A  VSB 1
$$

VAZ048-049-060>072-079>083-260400-
CENTRAL AND SOUTH CENTRAL VIRGINIA

CITY           SKY/WX    TMP DP  RH WIND       PRES   REMARKS
RICHMOND       PTCLDY    62  55  77 SW13      29.59R
CHESTERFIELD*  NOT AVBL
PETERSBURG*    CLEAR     60  53  79 SW8       29.62R
HANOVER        CLEAR     62  51  67 SW9G17    29.59R
TAPPAHANNOCK*  CLEAR     61  55  78 SW6       29.57R
QUINTON*       FAIR      63  55  77 SW7       29.58R
CHARLOTTSVILLE PTCLDY    63  52  67 VRB3      29.58R
GORDONSVILLE*  PTCLDY    57  54  89 CALM      29.57R
ORANGE*        CLOUDY    54  54 100 CALM      29.57R
LOUISA*        CLEAR     61  57  88 W5        29.57R
BUMPASS*       FAIR      55  55 100 SW3       29.58R
FARMVILLE*     CLEAR     62  51  67 SW9       29.61R
CREWE*         FAIR      60  54  81 SW6       29.62R
FORT PICKETT*  FAIR      59  55  88 SW8       29.63R
CHASE CITY*    FAIR      60  57  89 W5        29.65R
CLARKSVILLE*   FAIR      59  55  88 SW7       29.66R
SOUTH HILL*    CLEAR     61  56  85 SW9       29.70R
LAWRENCEVILLE* CLOUDY    61  57  87 SW7       29.64R
EMPORIA*       CLOUDY    61  55  82 S3        29.66S
$$

VAZ088>098-260400-
SOUTHEAST VIRGINIA

CITY           SKY/WX    TMP DP  RH WIND       PRES   REMARKS
NORFOLK        CLEAR     65  53  65 SW12      29.62R
VIRGINIA BEACH PTCLDY    60  54  80 SW10      29.62R
NORFOLK NAVAL  PTCLDY    65  53  65 SW13G20   29.64R
WEST POINT*    CLEAR     63  56  77 SW13      29.60R
SALUDA*        FAIR      61  59  94 SW7       29.57R
NEWPORT NEWS   CLEAR     63  55  75 W13G25    29.60R
LANGLEY AFB    CLEAR     64  56  75 W15G24    29.60R
FORT EUSTIS    CLEAR     62  56  78 W9        29.58R
WILLIAMSBURG*  CLEAR     63  57  82 W6        29.62R
HR EXEC AP*    FAIR      61  54  77 W8        29.63R
FRANKLIN*      MOCLDY    63  55  77 SW8       29.65R
US460-WAKEFLD  CLEAR     61  55  81 SW8       29.62R
$$

VAZ020-022-025-037-045-260400-
WEST CENTRAL AND SOUTHWEST VIRGINIA

CITY           SKY/WX    TMP DP  RH WIND       PRES   REMARKS
STAUNTON*      CLEAR     55  50  85 SW7       29.63R
WAYNESBORO*    CLEAR     57  52  85 W6        29.62R
HOT SPRINGS VA RAIN      50  48  93 W15G22    29.68R VSB 1/4
LYNCHBURG      MOCLDY    59  54  83 SW7       29.66R
DANVILLE       CLEAR     60  54  80 SW10      29.69R
SOUTH BOSTON*  MOCLDY    59  55  87 SW6       29.67R
MARTINSVILLE   PTCLDY    57  52  82 W6        29.73R
ROANOKE        MOCLDY    59  55  87 W5        29.68R
BLACKSBURG     CLOUDY    57  53  87 W5        29.74R
DUBLIN*        CLOUDY    59  51  72 W9        29.74R
MARION*        DRIZZLE   56  53  90 W21G32    29.80R
HILLSVILLE*    CLOUDY    56  49  79 W9G24     29.76R
RICHLANDS*     CLOUDY    54  26  34 W13       29.83R
WISE*          RAIN      55  55 100 W12G17    29.85R
ABINGDON*      CLOUDY    57  57  99 W8        29.84R FOG
$$

MDZ021>025-VAZ099-100-260400-
SOUTHERN MARYLAND AND THE DELMARVA PENINSULA

CITY           SKY/WX    TMP DP  RH WIND       PRES   REMARKS
PATUXENT RIVER CLOUDY    60  60 100 W13       29.53R
BAY BRIDGE APT CLOUDY    61  59  94 SW8       29.52R
LEONARDTOWN    CLOUDY    59  57  94 SW9       29.55R
DOVER          CLOUDY    60  60 100 SW6       29.48R
GEORGETOWN     MOCLDY    62  58  86 SW7       29.49F
EASTON         DRIZZLE   62  59  90 W5        29.55R
CAMBRIDGE      MOCLDY    63  57  82 W6        29.51R
SALISBURY      LGT RAIN  60  60 100 SW3       29.50R
OCEAN CITY     MOCLDY    61  58  90 SW9       29.53R
WALLOPS ISLAND PTCLDY    63  60  90 SW13G25   29.53R
ACCOMACK*      CLEAR     65  19  16 W16G29    29.56R
$$

NCZ012>017-030>032-260400-
NORTH CENTRAL AND EASTERN NORTH CAROLINA

CITY           SKY/WX    TMP DP  RH WIND       PRES   REMARKS
ROANOKE RAPIDS CLOUDY    61  61 100 SW8       29.66R
RALEIGH        PTCLDY    62  56  80 SW12      29.72R
ELIZABETH CITY CLOUDY    65  58  78 SW10      29.66R
AHOSKIE*         N/A     60  60  97 CALM      29.67R
EDENTON*       CLOUDY    69  60  72 SW8       29.69R
CURRITUCK*     CLOUDY    65  56  72 SW13      29.65R
KILL DEVIL HLS CLOUDY    67  59  77 SW9G16    29.67R
MANTEO         CLOUDY    67  60  78 W15       29.69R
CAPE HATTERAS  CLEAR     72  58  61 W21G32    29.72R
TARBORO*       NOT AVBL
GOLDSBORO      CLEAR     67  58  71 SW10      29.72R
WASHINGTON     MOCLDY    65  58  77 SW7       29.70R
GREENVILLE     CLOUDY    68  57  68 SW8       29.73R
NEW BERN       CLEAR     66  57  72 SW10      29.75R
WILMINGTON     CLEAR     66  56  70 SW9       29.80R
$$

VAZ048-260400-
ELSEWHERE

CITY           SKY/WX    TMP DP  RH WIND       PRES   REMARKS
HARRISBURG PA  CLOUDY    62  60  93 CALM      29.49R
BALTIMORE      CLOUDY    58  58 100 W9        29.51R
ANNAPOLIS      CLOUDY    61  61 100 VRB5      29.52R
ANDREWS AFB    PTCLDY    59  59  97 W7        29.53R
PHILADELPHIA   LGT RAIN  58  55  90 NW15G22   29.44F
HENDERSON NC   CLEAR     58  51  79 SW7       29.68R
GREENSBORO     PTCLDY    62  51  67 W10       29.73R
ROCKY MOUNT    MOCLDY    66  56  70 SW10      29.70R
$$

VAZ100-260400-
MARINE

STATION/POSITION TIME  TEMP    WIND        PRES    WAVE   SWELL
                       AIR SEA DIR/SP/G            HT/PER HT/PER
                 (UTC) (F)     (DEG/KT/KT) (MB)    (FT/S) (FT/S)
CAPE MAY NJ      0248   61 62  280/  8/ 10  998.1R
LEWES DE         0242   62 62  260/  7/ 10  998.2R
15NM E FENWICK I 0250   60 57  230/ 12/ 14  999.3R   5/ 7   3/ 7
OCEAN-CITY-INLET 0242   61 61  270/  9/ 11  999.8R
WACHAPREAGUE VA  0242   65 67  230/  9/ 18 1000.2R
THOMAS POINT MD  0300   60 64  270/  8/  9   N/A
GOOSES REEF MD   0300   63 63  290/ 12/ 16 1000.5    1
COVE POINT MD    0242   61     270/ 12/ 18 1000.0R
SOLOMONS ISLAND  0242   62 67  240/ 15/ 17   N/A
BISHOPS HEAD MD  0242   64 69  250/  8/ 10  999.5F
PINEY POINT MD   0242          250/  4/  6   N/A
POTOMAC MD       0300   65 67  260/ 16/ 17  999.2    2/ 3
CAMBRIDGE MD     0242   62 68                N/A
LEWISETTA VA     0242   63 68  250/ 10/ 12 1000.2R
RAPPAHANNOCK LGT 0242          240/ 28/ 31 1001.1R
STINGRAY PT      0250   65     260/ 17/ 23 1000.4R
YORK RVR RNG VA  0242   65     260/ 20/ 24 1001.2R
YORKTOWN VA      0242   64 69  250/ 11/ 17 1001.8R
JAMESTOWN VA     0300   63 71  230/ 12/ 17   N/A     1
DOMINION TERM VA 0242   65     260/ 16/ 20 1002.7R
KIPTOPEKE VA     0242      65  250/ 17/ 21   N/A
CHES BAY BRIDGE  0242   66     250/ 21/ 25 1002.1R
CAPE HENRY VA    0242   62     220/ 10/ 17   N/A
WILLOUBY STN VA  0242   65     250/ 21/ 26 1001.6R
S CRANEY ISL VA  0242   64     240/  8/ 14 1002.6R
CAPE HENRY BUOY  0242      63                N/A     4/ 7
1ST LANDING BUOY 0300   66 66              1002.9    2/ 3
CAPE CHARLES BUO 0251      62                N/A     4/ 7
64NM E OF VA BCH 0250   65 63  240/ 17/ 21 1003.4R   8/ 8   5/ 8
DUCK PIER NC     0242   68 62  240/ 13/ 19 1004.1R
44100 DUCK FRF   0235      63                N/A     5/10   2/11
44056 DUCK FRF   0230      63                N/A     3/ 8   2/11
OREGON INLET NC  0242   71 71  220/ 24/ 27 1004.7R
HATTERAS NC      0242   71 74  230/ 16/ 25 1006.0R
DIAMOND SHLS NC  0250   74 78  250/ 27/ 33 1006.0R  10/ 8
CAPE LOOKOUT NC  0300   72     250/ 22/ 28 1007.5R
$$




USA.gov is the U.S. government's official web portal to all federal, state and local government web resources and services.